Ingonish Beach, Nova Scotia

1:43 AM AST on November 23, 2017 (GMT -0400)
Ingonish Beach

Weather History for CXIB - September, 2012

Change the Weather History Date:

Monday, September 3, 2012

  Actual Average Record
Temperature  
Mean Temperature 58 °F -  
Max Temperature 71 °F - - ()
Min Temperature 46 °F - - ()
Degree Days  
Heating Degree Days 6    
Growing Degree Days 8 (Base 50)    
Moisture  
Dew Point 49 °F    
Average Humidity 74    
Maximum Humidity 94    
Minimum Humidity 43    
Precipitation  
Precipitation 0.00 in - - ()
Sea Level Pressure  
Sea Level Pressure 30.19 in    
Wind  
Wind Speed 4 mph ()    
Max Wind Speed 10 mph    
Max Gust Speed -    
T = Trace of Precipitation, MM = Missing Value Source: Averaged Metar Reports

Daily Weather History Graph

Daily Weather History Graph

Search for Another Location

Airport or City:

Trip Planner

Search our weather history database for the weather conditions in past years. The results will help you decide how hot, cold, wet, or windy it might be!

Date:

Astronomy

Sep. 03, 2012 Rise Set
Actual Time 6:24 AM ADT 7:36 PM ADT
Civil Twilight 5:53 AM ADT 8:07 PM ADT
Nautical Twilight 5:15 AM ADT 8:44 PM ADT
Astronomical Twilight 4:35 AM ADT 9:24 PM ADT
Moon 8:35 PM ADT (9/3) 9:43 AM ADT (9/3)
Length of Visible Light 14h 13m
Length of Day
13h 11m
Waning Gibbous, 90% of the Moon is Illuminated
Sep 3
Waning Gibbous
Sep 8
Last Quarter
Sep 15
New
Sep 22
First Quarter
Sep 30
Full

Hourly Weather History & Observations

Time (ADT) Temp. Windchill Dew Point Humidity Pressure Visibility Wind Dir Wind Speed Gust Speed Precip Events Conditions
12:00 AM 50.2 °F - 47.8 °F 92% 30.21 in - SW 3.5 mph - N/A   Unknown
1:00 AM 50.4 °F - 48.0 °F 92% 30.21 in - WSW 5.8 mph - N/A   Unknown
2:00 AM 48.9 °F - 46.6 °F 92% 30.21 in - WSW 4.6 mph - N/A   Unknown
3:00 AM 49 °F - 46 °F 87% 30.20 in - WSW 4.6 mph - -  
3:00 AM 49.1 °F - 46.4 °F 90% 30.20 in - WSW 4.6 mph - N/A   Unknown
4:00 AM 48.9 °F - 45.3 °F 87% 30.21 in - WSW 3.5 mph - N/A   Unknown
5:00 AM 48.9 °F - 45.0 °F 86% 30.22 in - SW 4.6 mph - N/A   Unknown
6:00 AM 46.4 °F 44.3 °F 44.4 °F 93% 30.22 in - SSW 4.6 mph - N/A   Unknown
7:00 AM 47.1 °F - 45.5 °F 94% 30.22 in - WSW 3.5 mph - N/A   Unknown
8:00 AM 51.4 °F - 48.4 °F 89% 30.22 in - SW 1.2 mph - N/A   Unknown
9:00 AM 59 °F - 51 °F 66% 30.21 in - ENE 1.2 mph - -  
9:00 AM 58.6 °F - 50.7 °F 75% 30.21 in - ENE 1.2 mph - N/A   Unknown
10:00 AM 66.0 °F - 48.4 °F 53% 30.20 in - South 2.3 mph - N/A   Unknown
11:00 AM 68.9 °F - 51.3 °F 53% 30.19 in - ESE 5.8 mph - N/A   Unknown
12:00 PM 70.9 °F - 52.0 °F 51% 30.19 in - East 8.1 mph - N/A   Unknown
1:00 PM 69.1 °F - 51.8 °F 54% 30.18 in - SE 10.4 mph - N/A   Unknown
2:00 PM 69.3 °F - 52.3 °F 55% 30.18 in - ESE 10.4 mph - N/A   Unknown
3:00 PM 69 °F - 52 °F 43% 30.18 in - SE 9.2 mph - -  
3:00 PM 68.7 °F - 51.6 °F 54% 30.18 in - SE 9.2 mph - N/A   Unknown
4:00 PM 67.1 °F - 50.2 °F 55% 30.17 in - ESE 8.1 mph - N/A   Unknown
5:00 PM 65.7 °F - 50.7 °F 58% 30.15 in - ESE 6.9 mph - N/A   Unknown
6:00 PM 63.1 °F - 50.4 °F 63% 30.14 in - SE 5.8 mph - N/A   Unknown
7:00 PM 60.8 °F - 49.8 °F 67% 30.14 in - SSW 3.5 mph - N/A   Unknown
8:00 PM 55.9 °F - 50.4 °F 82% 30.14 in - WSW 4.6 mph - N/A   Unknown
9:00 PM 54 °F - 50 °F 82% 30.15 in - WSW 3.5 mph - -  
9:00 PM 53.8 °F - 50.2 °F 88% 30.15 in - WSW 3.5 mph - N/A   Unknown
10:00 PM 52.2 °F - 49.6 °F 91% 30.15 in - WSW 3.5 mph - N/A   Unknown